This is the latest recevied weather packets stored in our database for station/object DH0DM-13. If no packets are shown the sender has not sent any weather packets the latest 10 day(s).
| Time | Temp. | Humidity | Pressure | Rain* | Wind** | Luminosity | Snow |
|---|---|---|---|---|---|---|---|
| 1788077912 | 23.33° C | 57% | 986.6 hPa | 0 mm | 4.92 m/s, 240° | - | - |
| 1788077312 | 23.33° C | 58% | 986.7 hPa | 0 mm | 7.15 m/s, 241° | - | - |
| 1788076711 | 23.33° C | 57% | 986.7 hPa | 0 mm | 12.07 m/s, 206° | - | - |
| 1788076110 | 23.33° C | 58% | 986.7 hPa | 0 mm | 7.6 m/s, 254° | - | - |
| 1788075509 | 22.78° C | 60% | 986.5 hPa | 0 mm | 8.49 m/s, 244° | - | - |
| 1788074908 | 22.78° C | 61% | 986.6 hPa | 0 mm | 2.24 m/s, 121° | - | - |
| 1788074307 | 22.22° C | 61% | 986.6 hPa | 0 mm | 6.26 m/s, 244° | - | - |
| 1788073706 | 22.22° C | 60% | 986.6 hPa | 0 mm | 3.58 m/s, 214° | - | - |
| 1788073105 | 22.22° C | 62% | 986.3 hPa | 0 mm | 4.02 m/s, 242° | - | - |
| 1788072504 | 22.22° C | 60% | 986.3 hPa | 0 mm | 7.15 m/s, 206° | - | - |
| 1788071903 | 22.22° C | 61% | 986.4 hPa | 0 mm | 4.47 m/s, 115° | - | - |
| 1788071303 | 21.67° C | 62% | 986.3 hPa | 0 mm | 5.36 m/s, 210° | - | - |
| 1788070702 | 21.11° C | 63% | 986.3 hPa | 0 mm | 2.24 m/s, 89° | - | - |
| 1788070101 | 20.56° C | 65% | 986.3 hPa | 0 mm | 0.89 m/s, 282° | - | - |
| 1788069500 | 20.56° C | 64% | 986.5 hPa | 0 mm | 2.24 m/s, 271° | - | - |
| 1788068899 | 20° C | 65% | 986.6 hPa | 0 mm | 1.79 m/s, 245° | - | - |
| 1788068298 | 19.44° C | 68% | 986.5 hPa | 0 mm | 2.24 m/s, 141° | - | - |
| 1788067697 | 19.44° C | 69% | 986.6 hPa | 0 mm | 1.34 m/s, 199° | - | - |
| 1788067096 | 18.89° C | 69% | 986.3 hPa | 0 mm | 0 m/s | - | - |
| 1788066495 | 19.44° C | 68% | 986.4 hPa | 0 mm | 1.34 m/s, 106° | - | - |
| 1788065894 | 19.44° C | 67% | 986.6 hPa | 0 mm | 0 m/s | - | - |
| 1788065293 | 19.44° C | 67% | 986.6 hPa | 0 mm | 2.24 m/s, 197° | - | - |
| 1788064692 | 19.44° C | 66% | 986.4 hPa | 0 mm | 1.34 m/s, 125° | - | - |
| 1788064091 | 19.44° C | 66% | 986.4 hPa | 0 mm | 3.58 m/s, 205° | - | - |
| 1788063491 | 19.44° C | 66% | 986.4 hPa | 0 mm | 2.68 m/s, 227° | - | - |
* Rain since midnight (hover to see other rain measurements)
** Current wind speed in m/s (hover to see current wind gust speed)